Location: Demangevelle
(47.9262°N, 6.0355°E)
Time: 04:16:46
(UTC+00:00)

Daily predictions for brighter satellites

Satellite Brightness Start Highest point End
(mag) Time Altitude Azimuth Time Altitude Azimuth Time Altitude Azimuth
Cosmos 2344 4.3 02:53:31 44° E 02:53:31 44° E 02:59:49 10° NE
USA 215 3.8 03:20:02 10° E 03:25:43 52° NE 03:25:43 52° NE
Cosmos 2369 Rocket 4.4 03:33:54 10° SSE 03:37:59 21° E 03:42:05 10° NE
NOSS 3-3 (A) 4.4 03:44:27 82° NNW 03:44:51 87° NE 03:53:20 10° SE
NOSS 3-3 (C) 4.4 03:44:31 81° NNW 03:44:57 87° NE 03:53:25 10° SE
Gblst 52 Del rocket 4.5 03:54:35 71° ESE 03:54:35 71° ESE 04:00:47 10° ENE
Cosmos 1943 Rocket 2.2 04:06:38 74° SE 04:06:52 75° ESE 04:12:32 10° NNE
CZ-2C R/B 3.6 04:04:02 10° SE 04:09:15 47° ENE 04:13:24 15° N
Cosmos 1241 Rocket 4.2 04:10:32 84° SW 04:10:32 84° SW 04:16:44 10° SSE
SL-19 R/B 4.4 04:05:56 10° SSE 04:11:29 71° ENE 04:13:20 43° N
SL-8 R/B 4.0 04:16:23 63° E 04:16:23 63° E 04:20:25 10° E
CENTAUR R/B 2.4 04:16:08 65° SW 04:17:10 90° NW 04:24:22 10° NE
Cosmos 2297 3.6 04:21:06 71° SW 04:21:47 87° WNW 04:27:33 10° NNE
NOSS 3-2 (A) 3.2 04:27:49 64° WNW 04:28:11 66° NW 04:34:47 10° NE
Cosmos 2278 Rocket 3.9 04:33:50 19° N 04:33:50 19° N 04:36:00 10° N
Envisat 3.4 04:30:22 10° NNE 04:35:26 63° ESE 04:40:28 10° S
NOSS 3-2 (C) 3.3 04:33:35 42° SW 04:35:41 88° SE 04:42:15 10° NE
SKYMED 2 3.7 04:31:40 10° SSE 04:35:59 71° ENE 04:37:12 45° N
Cosmos 2098 Rocket 3.6 04:38:11 10° S 04:41:59 57° E 04:46:47 10° NNE
Meteor 2-3 Rocket 3.6 04:36:58 10° SSW 04:42:36 69° WNW 04:48:21 10° N
Landsat 5 3.8 04:41:08 10° SSE 04:45:38 70° ENE 04:48:26 22° N
Cosmos 968 Rocket 3.3 04:42:38 23° SSW 04:45:54 82° WNW 04:51:04 10° NNE
Meteor 2-13 Rocket 4.4 04:40:56 10° S 04:47:04 90° ESE 04:53:12 10° N
CZ-4B R/B 4.5 04:43:31 10° NNE 04:47:57 65° ESE 04:52:24 10° S
Genesis I 4.0 04:49:24 40° SSW 04:49:24 40° SSW 04:52:24 10° SSE
Cosmos 921 Rocket 2.9 04:50:35 67° W 04:50:49 68° WSW 04:55:13 10° S
Okean 3 Rocket 4.3 04:49:11 10° S 04:53:36 56° E 04:58:05 10° NNE
DNEPR-1 R/B 3.9 04:53:15 40° NNW 04:55:02 80° NE 05:00:37 10° SE
Cosmos 1833 4.5 04:51:16 21° NNW 04:55:11 67° ENE 05:00:53 10° SE
H-2A R/B 3.9 04:52:40 10° SE 04:56:24 30° ENE 05:00:13 10° N
Meteor 1-26 Rocket 4.4 04:53:51 28° NNW 04:56:48 52° W 05:02:23 10° S
Cosmos 1812 2.5 04:56:57 71° NW 04:57:14 76° W 05:01:03 10° S
CBERS 1 LM4 rocket 4.4 04:53:49 10° NNE 04:58:41 81° ESE 05:03:41 10° SSW
ADEOS 4.4 04:53:49 10° NNE 04:58:57 53° E 05:04:03 10° S
USA 238 DEB 3.6 05:00:10 27° WSW 05:03:52 63° NW 05:10:46 10° NE
Cosmos 2142 Rocket 4.5 04:57:32 10° N 05:03:54 85° W 05:10:18 10° S
USA 238 3.6 05:00:14 27° WSW 05:03:58 63° NW 05:10:52 10° NE
Cosmos 1151 Rocket 2.9 05:01:35 25° NNW 05:04:05 75° W 05:08:27 10° S
Cosmos 1766 Rocket 3.5 05:02:26 10° S 05:06:47 84° E 05:11:08 10° N
CZ-2C R/B 4.2 05:02:18 10° NNE 05:06:55 42° E 05:11:40 10° S
Cosmos 2344 3.8 05:03:34 30° W 05:06:57 48° NW 05:14:52 10° NE
Cosmos 2263 4.4 05:01:57 10° SSW 05:07:37 75° ESE 05:13:23 10° NNE
USA 215 3.3 05:02:46 10° SE 05:09:15 70° SW 05:13:03 27° WNW
Kosmos-917 4.1 05:12:29 42° NW 05:12:48 43° NW 05:17:51 10° NE
Meteor 1-31 Rocket 2.6 05:10:01 10° N 05:13:53 69° WNW 05:17:46 10° SSW
Cosmos 2279 Rocket 3.9 05:08:28 10° NNW 05:14:40 76° W 05:20:50 10° S
Cosmos 2297 Rocket 4.4 05:11:11 10° N 05:15:07 19° NE 05:19:02 10° E
Cosmos 1328 Rocket 3.4 05:12:41 12° NNW 05:16:47 78° W 05:21:07 10° S
IRAS Rocket 4.3 05:12:17 10° SSE 05:17:47 81° ENE 05:23:18 10° NNW
SJ-12 4.1 05:15:18 10° N 05:19:16 46° WNW 05:23:13 10° SW
Cosmos 2369 Rocket 2.1 05:15:54 10° SW 05:21:27 67° WNW 05:27:04 10° NNE
FALCON 9 DEB 3.2 05:21:07 47° WNW 05:21:42 55° NNW 05:25:04 10° ENE
Cosmos 1862 3.2 05:19:09 10° SSW 05:23:04 66° WNW 05:27:01 10° N
COSMO-SKYMED 1 3.0 05:20:06 10° SSW 05:24:09 38° W 05:25:48 27° NW
H-2A R/B 3.2 05:23:51 10° N 05:27:14 34° WNW 05:30:38 10° SW
Cosmos 1634 Rocket 4.4 05:23:48 10° NNW 05:29:33 39° W 05:35:14 10° SSW
CZ-4B R/B 2.9 05:33:05 10° NNE 05:36:40 69° ESE 05:40:14 10° S
CZ-4B R/B 2.9 05:37:00 10° SE 05:40:05 35° ENE 05:43:07 10° N
Cosmos 1408 Rocket 3.4 05:37:51 10° S 05:42:10 87° WNW 05:46:30 10° N
Cosmos 783 Rocket 4.4 05:37:47 10° NNW 05:43:00 78° WSW 05:48:12 10° SSE
CZ-4C R/B 3.6 05:42:20 10° SSW 05:45:07 28° W 05:46:01 24° WNW
Cosmos 1656 Rocket 3.6 05:39:48 10° SW 05:45:08 60° WNW 05:50:33 10° NNE
DMSP B5D2-2 4.0 05:40:18 10° S 05:45:29 67° WSW 05:50:42 10° NNW
Cosmos 1503 Rocket 4.0 05:40:16 10° SSW 05:45:32 72° WNW 05:50:54 10° NNE
Cosmos 1743 Rocket 4.1 05:45:11 10° S 05:49:31 61° E 05:53:50 10° NNE
CZ-2C R/B 3.5 05:45:01 10° SSW 05:49:43 29° W 05:54:22 10° NW
Cosmos 2227 Rocket 4.1 05:46:13 10° N 05:50:39 23° NE 05:55:03 10° E
Cosmos 1943 Rocket 3.3 05:48:15 16° W 05:51:14 24° NW 05:55:47 10° N
Cosmos 1486 Rocket 4.4 05:48:22 10° SW 05:53:20 40° WNW 05:58:18 10° N
Cosmos 1515 Rocket 3.6 05:52:47 10° NNW 05:57:03 54° W 06:01:17 10° S
Cosmos 1777 Rocket 4.3 05:52:04 10° SSW 05:57:15 71° ESE 06:02:29 10° NNE
SL-8 R/B 4.1 05:54:22 16° W 05:58:03 52° SSW 06:02:40 10° SE
FALCON 9 DEB 3.8 05:56:51 19° NW 05:58:16 29° N 06:00:52 10° ENE
Meteor 1-27 Rocket 3.7 05:54:29 10° NNW 06:00:06 72° W 06:05:48 10° S
NOAA 6 4.4 05:57:06 10° NNE 06:02:13 69° ESE 06:07:19 10° S
COSMOS 2487 3.1 06:00:57 10° NNW 06:04:15 52° ENE 06:07:31 10° SE
Cosmos 773 Rocket 4.1 05:59:29 10° NNW 06:04:38 58° WSW 06:09:41 10° S
FALCON 9 DEB 3.9 06:03:16 16° NW 06:04:56 27° N 06:07:28 10° ENE
SJ 16-02 1.5 06:02:25 10° SSW 06:06:48 78° ESE 06:11:12 10° NNE
FALCON 9 DEB 3.9 06:05:16 15° NW 06:07:02 27° N 06:09:33 10° ENE
NOAA 11 4.4 06:02:51 10° N 06:08:07 49° WNW 06:13:22 10° SW
CENTAUR R/B 3.5 06:03:21 11° W 06:08:50 33° NNW 06:15:36 10° NE
Alouette 2 Rocket 3.1 06:06:37 10° NNW 06:10:36 77° WSW 06:14:07 10° S
Meteor 2-19 Rocket 4.5 06:07:19 10° SSW 06:13:16 58° WNW 06:19:15 10° N
NOAA 12 4.1 06:08:06 10° N 06:13:21 65° WNW 06:18:32 10° SSW
Envisat 4.1 06:10:16 10° NNW 06:14:00 21° WNW 06:17:45 10° WSW
Cosmos 1340 Rocket 2.7 06:11:02 10° SSW 06:14:58 75° WNW 06:18:59 10° N
SL-27 R/B 3.1 06:14:29 10° NW 06:17:50 38° WSW 06:21:09 10° S
Cosmos 1500 Rocket 3.6 06:13:59 10° SSW 06:18:24 65° W 06:22:52 10° N
Cosmos 1939 Rocket 2.9 06:16:04 10° N 06:19:56 53° WNW 06:23:44 10° SSW
FALCON 9 DEB 3.9 06:21:30 10° WNW 06:24:01 28° N 06:26:35 10° ENE
NOSS 3-2 (C) 4.4 06:22:13 10° W 06:27:29 31° NNW 06:33:30 10° NE
Cosmos 1707 Rocket 4.2 06:24:27 10° N 06:28:51 60° ENE 06:33:14 10° SSE
Cosmos 1805 Rocket 3.5 06:25:38 10° S 06:30:01 82° W 06:34:26 10° N
Okean O Rocket 3.3 06:26:13 10° NNE 06:30:25 40° E 06:34:33 10° SSE
EO 1 Delta rocket 4.5 06:23:36 10° N 06:30:32 78° WNW 06:35:56 10° SSW
CZ-4B R/B 4.3 06:26:07 10° NNE 06:31:15 48° E 06:36:23 10° S
Sich 1 3.1 06:27:34 10° S 06:31:52 83° E 06:36:09 10° N
H-2A R/B 2.9 06:28:32 10° SSW 06:32:18 31° W 06:36:12 10° NNW
Cosmos 2026 Rocket 4.1 06:26:26 10° S 06:32:48 88° W 06:39:08 10° N
Meteor 1-25 Rocket 4.2 06:28:45 10° SSW 06:34:22 81° W 06:40:00 10° N
ATLAS 3B R/B 2.9 06:28:38 10° SSW 06:35:10 78° SE 06:42:03 10° NE
Cosmos 2195 Rocket 4.5 06:29:55 10° SSW 06:36:02 72° W 06:42:09 10° N
Cosmos 1553 Rocket 4.3 06:32:06 10° N 06:38:12 71° E 06:44:16 10° SSE
